Weather Roundup
Issued by NWS Springfield, MO

Home | Current Version | Previous Version | Text Only | Print | Product List | Glossary On
Versions: 1 2 3 4 5 6 7 8 9 10 11 12 13 14 15 16 17 18 19 20 21 22 23 24 25 26 27 28 29 30 31 32 33 34 35 36 37 38 39 40 41 42 43 44 45 46 47 48 49 50
111
NZUS99 KSGF 251757
HRRSGF

HOURLY WEATHER
NATIONAL WEATHER SERVICE SPRINGFIELD MO
100 PM CDT SUN SEP 25 2016

......SGF CWA......

CITY           SKY/WX    TMP DP  RH WIND       PRES   REMARKS
SPRINGFIELD    PTSUNNY   81  69  67 NW12      30.09S
6HR MIN TEMP:  67; 6HR MAX TEMP:  86;

JOPLIN         CLOUDY    78  68  71 N7        30.11F
6HR MIN TEMP:  69; 6HR MAX TEMP:  78;

WEST PLAINS    MOSUNNY   85  67  54 W7        30.11F
6HR MIN TEMP:  66; 6HR MAX TEMP:  86;

ROLLA          MOSUNNY   86  68  54 W12       30.07F
6HR MIN TEMP:  67; 6HR MAX TEMP:  86;

BRANSON        MOSUNNY   84  66  54 W5        30.10F

......SURROUNDING SGF CWA......

CITY           SKY/WX    TMP DP  RH WIND       PRES   REMARKS
CHANUTE        CLOUDY    63  60  90 NW12      30.15R
PARSONS        CLOUDY    71  68  90 NW9       30.14R
COFFEYVILLE    LGT RAIN  71  68  90 NW9       30.12S
EMPORIA        CLOUDY    63  56  78 N6        30.19S
HARRISON AR    PTSUNNY   85  67  54 CALM      30.09F

......KANSAS AND MISSOURI......

CITY           SKY/WX    TMP DP  RH WIND       PRES   REMARKS
KANSAS CTY INT CLOUDY    62  54  74 NW7       30.16S
SEDALIA        CLOUDY    78  65  63 N9        30.11F
ST JOSEPH      CLOUDY    63  56  78 NW5       30.15S
ST LOUIS       PTSUNNY   90  67  46 SW9G21    30.05F HX  93
WICHITA        PTSUNNY   66  50  56 N17G23    30.21R
TOPEKA         CLOUDY    64  55  72 NW5       30.18S
OLATHE         CLOUDY    61  56  83 N12       30.15R

......TENNESSEE......

CITY           SKY/WX    TMP DP  RH WIND       PRES   REMARKS
MEMPHIS        NOT AVBL
NASHVILLE      MOSUNNY   89  63  41 NE3       30.07F HX  90

......ARKANSAS.......

CITY           SKY/WX    TMP DP  RH WIND       PRES   REMARKS
FAYETTEVILLE   MOSUNNY   83  69  62 SW7       30.09F
FT SMITH       PTSUNNY   89  67  47 SW6       30.05F HX  92
LITTLE ROCK    PTSUNNY   92  67  43 CALM      30.04F HX  95

......OKLAHOMA.......

CITY           SKY/WX    TMP DP  RH WIND       PRES   REMARKS
TULSA          LGT RAIN  76  70  82 NW8       30.09S
PONCA CITY     CLOUDY    63  56  78 N16G24    30.17S
MCALESTER      PTSUNNY   82  69  64 NW8       30.07S
OKLAHOMA CITY  CLOUDY    74  66  76 N23       30.13S

......IOWA............

CITY           SKY/WX    TMP DP  RH WIND       PRES   REMARKS
DES MOINES     NOT AVBL
QUAD CITIES    PTSUNNY   84  69  60 W9        29.96F

......ILLINOIS........

CITY           SKY/WX    TMP DP  RH WIND       PRES   REMARKS
QUINCY         NOT AVBL
CHICAGO        PTSUNNY   80  66  62 S8        30.02F




USA.gov is the U.S. government's official web portal to all federal, state and local government web resources and services.